Location: Shenandoah County Park
(38.9356°N, 78.4524°W)
Time: 20:42:09
(UTC-05:00)

Explorer 7 - Pass Details

Date: 26 July 2025
Orbit: 431 x 546 km, 50.2° (Epoch: 8 February)

Event Time Altitude Azimuth Distance (km) Brightness Sun altitude
Rises 05:09:30 0° 305° (NW) 2,819 10.2 -10.9°
Reaches altitude 10° 05:12:17 10° 322° (NW) 1,915 9.6 -10.4°
Maximum altitude 05:15:38 21° 12° (NNE) 1,336 9.4 -9.9°
Drops below altitude 10° 05:18:56 10° 61° (ENE) 1,884 11.2 -9.4°
Sets 05:21:38 0° 78° (ENE) 2,759 11.8 -8.9°
